Flag for Austria Weather past 2 weeks in St. Pölten, Lower Austria, Austria

Now
81 °F

Partly sunny.


Feels Like: 82 °F
Forecast: 58 / 91 °F
Wind: 2 mph from North

Location: Tulln Airport

Current Time: Jul 4, 2015 at 10:32:43 AM

Latest Report: Jul 4, 2015 at 9:50 AM


Visibility: 22 mi

Pressure: 30.24 "Hg

Humidity: 54%

Dew point: 63 °F

Location of St. PöltenLocation

Historic Weather in St. Pölten — Graph

°F

St. Pölten temperature yesterday

Maximum temperature yesterday: 88 °F (at 1:50 PM)
Minimum temperature yesterday: 59 °F (at 5:50 AM)
Average temperature yesterday: 79 °F

Past Weeks' High & Low Weather Summary

 TemperatureHumidityPressure
High90 °F (Jul 2, 2:50 PM)100% (Jun 20, 5:50 AM)30.30 "Hg (Jun 20, 5:50 AM)
Low48 °F (Jun 25, 5:50 AM)32% (Jun 30, 1:50 PM)29.80 "Hg (Jun 23, 6:50 AM)
Average68 °F66%30.11 "Hg
* Reported Jun 19 8:50 AM — Jul 4 8:50 AM, St. Pölten, Weather by CustomWeather, © 2015

Note: Actual official high and low records may vary slightly from our data, if they occured in-between our weather recording intervals... More about our weather records

Advertising

St. Pölten weather history for previous 24 hours

 ConditionsComfort  
Time TempWeatherWind HumidityBarometerVisibility
8:50 AM
Sat, Jul 4
79 °FPartly sunny.2 mph58%30.24 "Hg22 mi
7:50 AM73 °FScattered clouds.3 mph69%30.24 "Hg22 mi
6:50 AM66 °FScattered clouds.2 mph83%30.24 "Hg22 mi
5:50 AM63 °FPassing clouds.1 mph88%30.24 "Hg22 mi
10:50 PM
Fri, Jul 3
75 °FPassing clouds.6 mph57%30.30 "Hg12 mi
9:50 PM75 °FPassing clouds.7 mph57%30.30 "Hg16 mi
8:50 PM79 °FPassing clouds.6 mph51%30.27 "Hg22 mi
7:50 PM82 °FPassing clouds.7 mph48%30.27 "Hg22 mi
6:50 PM86 °FPassing clouds.12 mph38%30.27 "Hg22 mi
5:50 PM88 °FPassing clouds.9 mph38%30.27 "Hg22 mi
4:50 PM88 °FPassing clouds.8 mph35%30.27 "Hg19 mi
3:50 PM88 °FPassing clouds.8 mph38%30.27 "Hg19 mi
2:50 PM86 °FPassing clouds.7 mph40%30.30 "Hg19 mi
1:50 PM88 °FPassing clouds.8 mph38%30.30 "Hg19 mi
12:50 PM84 °FPassing clouds.6 mph40%30.30 "Hg19 mi
11:50 AM82 °FPassing clouds.8 mph42%30.30 "Hg19 mi
10:50 AM81 °FPassing clouds.8 mph45%30.30 "Hg16 mi
Weather by CustomWeather, © 2015

See weather overviewHow to use our weather pages